Radioactive Concentration measured by Seawater Radiation Monitor near Fukushima Daiichi Nuclear Power Station
Date,Time,Cs137(Bq/L),Cs134(Bq/L),Total β(Bq/L)
2019/11/08,00:00,0.87,ND,ND
2019/11/08,00:10,0.89,ND,ND
2019/11/08,00:20,0.89,ND,ND
2019/11/08,00:30,0.88,ND,ND
2019/11/08,00:40,0.89,ND,ND
2019/11/08,00:50,0.88,ND,ND
2019/11/08,01:00,0.87,ND,ND
2019/11/08,01:10,0.95,ND,ND
2019/11/08,01:20,0.93,ND,ND
2019/11/08,01:30,0.87,ND,9.5
2019/11/08,01:40,0.87,ND,9.3
2019/11/08,01:50,0.86,ND,ND
2019/11/08,02:00,0.89,ND,ND
2019/11/08,02:10,0.89,ND,ND
2019/11/08,02:20,0.90,ND,ND
2019/11/08,02:30,0.98,ND,ND
2019/11/08,02:40,0.98,ND,ND
2019/11/08,02:50,0.98,ND,ND
2019/11/08,03:00,0.97,ND,9.3
2019/11/08,03:10,0.86,ND,12
2019/11/08,03:20,0.85,ND,13
2019/11/08,03:30,0.85,ND,14
2019/11/08,03:40,0.87,ND,12
2019/11/08,03:50,0.89,ND,10
2019/11/08,04:00,0.98,ND,ND
2019/11/08,04:10,1.0,ND,ND
2019/11/08,04:20,1.0,ND,ND
2019/11/08,04:30,0.93,ND,ND
2019/11/08,04:40,0.91,ND,9.2
2019/11/08,04:50,0.93,ND,10
2019/11/08,05:00,0.93,ND,12
2019/11/08,05:10,0.93,ND,11
2019/11/08,05:20,0.93,ND,11
2019/11/08,05:30,0.92,ND,8.9
2019/11/08,05:40,0.93,ND,9.3
2019/11/08,05:50,0.90,ND,ND
2019/11/08,06:00,0.89,ND,ND
2019/11/08,06:10,0.91,ND,ND
2019/11/08,06:20,0.92,ND,ND
2019/11/08,06:30,0.94,ND,ND
2019/11/08,06:40,0.94,ND,ND
2019/11/08,06:50,0.95,ND,ND
2019/11/08,07:00,0.96,ND,ND
2019/11/08,07:10,0.93,ND,ND
2019/11/08,07:20,1.0,ND,ND
2019/11/08,07:30,0.96,ND,11
2019/11/08,07:40,0.87,ND,12
2019/11/08,07:50,0.95,ND,ND
2019/11/08,08:00,0.85,ND,9.7
2019/11/08,08:10,0.85,ND,9.9
2019/11/08,08:20,0.86,ND,11
2019/11/08,08:30,0.88,ND,10
2019/11/08,08:40,0.88,ND,9.3
2019/11/08,08:50,0.85,ND,12
2019/11/08,09:00,0.85,ND,10
2019/11/08,09:10,0.85,ND,9.6
2019/11/08,09:20,0.84,ND,9.0
2019/11/08,09:30,0.83,ND,ND
2019/11/08,09:40,0.82,ND,ND
2019/11/08,09:50,0.84,ND,ND
2019/11/08,10:00,0.85,ND,ND
2019/11/08,10:10,0.84,ND,ND
2019/11/08,10:20,0.84,ND,ND
2019/11/08,10:30,0.82,ND,ND
2019/11/08,10:40,0.82,ND,ND
2019/11/08,10:50,0.80,ND,ND
2019/11/08,11:00,0.78,ND,ND
2019/11/08,11:10,0.79,ND,ND
2019/11/08,11:20,0.77,ND,ND
2019/11/08,11:30,0.76,ND,ND
2019/11/08,11:40,0.76,ND,ND
2019/11/08,11:50,0.77,ND,ND
2019/11/08,12:00,0.78,ND,ND
2019/11/08,12:10,0.75,ND,ND
2019/11/08,12:20,0.77,ND,ND
2019/11/08,12:30,0.82,ND,ND
2019/11/08,12:40,0.78,ND,ND
2019/11/08,12:50,0.79,ND,ND
2019/11/08,13:00,0.79,ND,ND
2019/11/08,13:10,0.79,ND,ND
2019/11/08,13:20,0.80,ND,ND
2019/11/08,13:30,0.78,ND,ND
2019/11/08,13:40,0.77,ND,ND
2019/11/08,13:50,0.75,ND,ND
2019/11/08,14:00,0.79,ND,ND
2019/11/08,14:10,0.80,ND,ND
2019/11/08,14:20,0.79,ND,11
2019/11/08,14:30,0.80,ND,9.5
2019/11/08,14:40,0.76,ND,11
2019/11/08,14:50,0.76,ND,9.0
2019/11/08,15:00,0.76,ND,10
2019/11/08,15:10,0.75,ND,ND
2019/11/08,15:20,0.75,ND,ND
2019/11/08,15:30,0.76,ND,ND
2019/11/08,15:40,0.77,ND,10
2019/11/08,15:50,0.76,ND,11
2019/11/08,16:00,0.76,ND,14
2019/11/08,16:10,0.79,ND,13
2019/11/08,16:20,0.78,ND,14
2019/11/08,16:30,0.78,ND,13
2019/11/08,16:40,0.78,ND,12
2019/11/08,16:50,0.78,ND,12
2019/11/08,17:00,0.80,ND,10
2019/11/08,17:10,0.82,ND,10
2019/11/08,17:20,0.81,ND,ND
2019/11/08,17:30,0.82,ND,10
2019/11/08,17:40,0.81,ND,ND
2019/11/08,17:50,0.79,ND,ND
2019/11/08,18:00,0.77,ND,ND
2019/11/08,18:10,0.75,ND,ND
2019/11/08,18:20,0.76,ND,11
2019/11/08,18:30,0.74,ND,9.2
2019/11/08,18:40,0.74,ND,10
2019/11/08,18:50,0.76,ND,10
2019/11/08,19:00,0.77,ND,12
2019/11/08,19:10,0.78,ND,12
2019/11/08,19:20,0.79,ND,10
2019/11/08,19:30,0.78,ND,ND
2019/11/08,19:40,0.85,ND,ND
2019/11/08,19:50,0.85,ND,12
2019/11/08,20:00,0.81,ND,ND
2019/11/08,20:10,0.79,ND,ND
2019/11/08,20:20,0.79,ND,ND
2019/11/08,20:30,0.80,ND,ND
2019/11/08,20:40,0.78,ND,ND
2019/11/08,20:50,0.78,ND,ND
2019/11/08,21:00,0.79,ND,ND
2019/11/08,21:10,0.81,ND,ND
2019/11/08,21:20,0.81,ND,ND
2019/11/08,21:30,0.90,ND,ND
2019/11/08,21:40,0.90,ND,ND
2019/11/08,21:50,0.81,ND,ND
2019/11/08,22:00,0.79,ND,ND
2019/11/08,22:10,0.77,ND,ND
2019/11/08,22:20,0.76,ND,ND
2019/11/08,22:30,0.78,ND,ND
2019/11/08,22:40,0.76,ND,ND
2019/11/08,22:50,0.77,ND,9.2
2019/11/08,23:00,0.78,ND,10
2019/11/08,23:10,0.78,ND,12
2019/11/08,23:20,0.78,ND,12
2019/11/08,23:30,0.77,ND,9.3
2019/11/08,23:40,0.79,ND,13
2019/11/08,23:50,0.80,ND,8.8
